sat.trackr.live / text

‹ back to catalog

STARLINK-32691

NORAD 62501 · 2025-003Q

PAYLOAD ACTIVE UNKNOWN

§ Identity

Operator
Country
US
Launch date
2025-01-06
Launch site
AFETR
Launch vehicle
Mass (kg)
RCS (m²)

Purposes: comms

External: N2YO · Heavens-Above · Gunter

§ Orbital elements

Epoch: 2026-09-21T00:14:09.566016Z

Period
94.27 min
Inclination
42.9990°
Eccentricity
0.0001449
Mean motion
15.27587245 rev/d
Perigee alt
482.0 km
Apogee alt
484.0 km
Semi-major
6,861.2 km
B*
6.7744e-4
RAAN
265.8656°
Arg perigee
252.0948°
Mean anomaly
107.9746°
Rev number
9,653

§ Raw data

STARLINK-326911 62501U 25003Q   26264.00983294  .00018430  00000+0  67744-3 0  99952 62501  42.9990 265.8656 0001449 252.0948 107.9746 15.27587245 96538

JSON: /api/v1/satellites/62501 · /tle

For live sub-satellite position, see the globe view (requires WebGL).

§ Visibility from observer

Set your observer location to see the next 7 days of passes ≥ 10°. The values pass through the URL so the page stays shareable.

No JS? Fill the form by hand. The geolocation button needs JavaScript.